Location: Hermaringen
(48.5952°N, 10.2585°E)
Time: 17:31:29
(UTC+00:00)

Vanguard 3 - All Passes

Search period start: 16 February 2026 00:00
Search period end: 26 February 2026 00:00
Orbit: 507 x 3205 km, 33.3° (Epoch: 16 February)

Date Brightness Start Highest point End Pass type
(mag) Time Alt. Az. Time Alt. Az. Time Alt. Az.
16 Feb - 14:19:24 10° SSE 14:20:21 10° SSE 14:21:15 10° SSE daylight
16 Feb - 16:26:39 10° SSW 16:31:11 16° S 16:34:39 10° SE daylight
16 Feb - 18:38:45 10° SW 18:41:13 13° SSW 18:43:20 10° SSE visible
17 Feb - 15:04:26 10° SSW 15:09:44 16° SSE 15:13:47 10° SE daylight
17 Feb - 17:15:42 10° SW 17:20:17 18° S 17:23:45 10° SE visible
18 Feb - 13:43:09 10° S 13:47:57 13° SSE 13:51:52 10° SE daylight
18 Feb - 15:52:46 10° SW 15:59:02 20° S 16:03:30 10° SE daylight
18 Feb - 18:05:28 10° SW 18:09:13 16° SSW 18:12:12 10° SSE visible
19 Feb - 14:30:04 10° SSW 14:37:24 20° SSE 14:42:41 10° SE daylight
19 Feb - 16:42:06 10° SW 16:48:12 22° S 16:52:29 10° SE daylight
19 Feb - 18:56:21 10° SW 18:57:58 11° SSW 18:59:25 10° S visible
20 Feb - 13:08:09 10° SSW 13:15:23 17° SSE 13:20:57 10° SE daylight
20 Feb - 15:18:44 10° SW 15:26:46 24° S 15:32:12 10° SE daylight
20 Feb - 17:32:01 10° WSW 17:37:10 19° SSW 17:40:57 10° SSE visible
21 Feb - 11:48:33 10° S 11:53:04 12° SSE 11:57:03 10° SE daylight
21 Feb - 13:55:38 10° SSW 14:04:54 23° SSE 14:11:20 10° ESE daylight
21 Feb - 16:08:17 10° SW 16:16:00 25° S 16:21:09 10° SE daylight
21 Feb - 18:22:40 10° SW 18:25:54 14° SSW 18:28:32 10° S visible
22 Feb - 12:33:18 10° SSW 12:42:39 20° SSE 12:49:37 10° ESE daylight
22 Feb - 14:44:32 10° SW 14:54:21 28° S 15:00:46 10° ESE daylight
22 Feb - 16:58:21 10° WSW 17:05:01 23° SSW 17:09:37 10° SSE daylight
23 Feb - 11:12:54 10° S 11:20:07 14° SSE 11:26:10 10° ESE daylight
23 Feb - 13:21:06 10° SW 13:32:14 27° SSE 13:39:48 10° ESE daylight
23 Feb - 15:34:14 10° WSW 15:43:39 29° S 15:49:42 10° SE daylight
23 Feb - 17:48:59 10° WSW 17:53:45 17° SSW 17:57:23 10° S visible
24 Feb - 11:58:31 10° SSW 12:09:42 23° SSE 12:17:59 10° ESE daylight
24 Feb - 14:10:10 10° SW 14:21:45 32° S 14:29:12 10° ESE daylight
24 Feb - 16:24:26 10° WSW 16:32:44 26° SSW 16:38:12 10° SE daylight
25 Feb - 10:37:46 10° S 10:46:58 17° SSE 10:54:37 10° ESE daylight
25 Feb - 12:46:31 10° SW 12:59:21 30° SSE 13:08:05 10° ESE daylight
25 Feb - 15:00:01 10° WSW 15:11:09 33° S 15:18:08 10° SE daylight
25 Feb - 17:15:09 10° WSW 17:21:31 20° SSW 17:26:04 10° SSE visible
